Regional Weather Roundup
Issued by NWS

Home | Current Version | Previous Version | Text Only | Print | Product List | Glossary Off
Versions: 1 2 3 4 5 6 7 8 9 10 11 12 13 14 15 16 17 18 19 20 21 22 23 24 25 26 27 28 29 30 31 32 33 34 35 36 37 38 39 40 41 42 43 44 45 46 47 48 49 50

000
ASUS43 KLSX 200607
RWRMO

WEATHER SUMMARY FOR MISSOURI
NATIONAL WEATHER SERVICE SPRINGFIELD MO
100 AM CDT SAT SEP 20 2014

NOTE: "FAIR" INDICATES FEW OR NO CLOUDS BELOW 12,000 FEET WITH NO
       SIGNIFICANT WEATHER AND/OR OBSTRUCTIONS TO VISIBILITY.
       CURRENT SKY AND/OR WEATHER CONDITIONS ARE NOT AVAILABLE FOR
       CHILLICOTHE AND FARMINGTON.

MOZ001>031-035>038-043-044-053-054-200700-
...NORTHERN AND WESTERN MISSOURI...

CITY           SKY/WX    TMP DP  RH WIND       PRES   REMARKS
KANSAS CTY INT CLEAR     68  66  93 S12       29.94F
6HR MIN TEMP:  68; 6HR MAX TEMP:  75;

KANSAS C DTWN  CLEAR     71  66  84 S9        29.94S
6HR MIN TEMP:  70; 6HR MAX TEMP:  78;

LEE`S SUMMIT   CLEAR     69  66  90 SW8       29.96S
6HR MIN TEMP:  68; 6HR MAX TEMP:  76;

ST JOSEPH      PTCLDY    69  67  93 S9        29.90F
6HR MIN TEMP:  69; 6HR MAX TEMP:  76;

CHILLICOTHE      N/A     69  65  86 S6        29.93F
6HR MIN TEMP:  67; 6HR MAX TEMP:  75;

KIRKSVILLE     CLEAR     67  62  84 S10       29.93F
6HR MIN TEMP:  65; 6HR MAX TEMP:  70;


$$
MOZ066>068-077>081-088>096-101>105-200700-
...SOUTHWEST MISSOURI...

CITY           SKY/WX    TMP DP  RH WIND       PRES   REMARKS
SPRINGFIELD    CLEAR     67  63  87 S12       30.01F
6HR MIN TEMP:  67; 6HR MAX TEMP:  74;

JOPLIN         CLEAR     67  66  97 SE7       29.99F
6HR MIN TEMP:  66; 6HR MAX TEMP:  77;


$$
MOZ032>034-039>042-045>050-055>058-069>072-200700-
...CENTRAL MISSOURI...

CITY           SKY/WX    TMP DP  RH WIND       PRES   REMARKS
COLUMBIA       CLEAR     63  61  93 S7        29.98F
6HR MIN TEMP:  62; 6HR MAX TEMP:  71;

JEFFERSON CITY CLEAR     62  60  93 E3        29.98F
6HR MIN TEMP:  62; 6HR MAX TEMP:  75;

ROLLA          CLEAR     66  62  87 S12       29.99F FOG
6HR MIN TEMP:  64; 6HR MAX TEMP:  71; 6HR PCP: TRACE;

SEDALIA        CLEAR     68  63  84 S9        29.97F
6HR MIN TEMP:  66; 6HR MAX TEMP:  73;

WHITEMAN AFB   CLEAR     64  62  95 S8        29.95F
OSAGE BEACH    CLEAR     63  61  94 S6        29.99F

$$
MOZ051-052-059>065-200700-
...EAST CENTRAL MISSOURI...

CITY           SKY/WX    TMP DP  RH WIND       PRES   REMARKS
ST LOUIS INTL  PTCLDY    68  59  73 S6        30.01S
6HR MIN TEMP:  68; 6HR MAX TEMP:  77;

SPIRIT OF STL  CLEAR     57  57 100 CALM      29.99F FOG
6HR MIN TEMP:  58; 6HR MAX TEMP:  69;

ST CHARLES     CLEAR     58  56  93 E3        29.99F
6HR MIN TEMP:  57; 6HR MAX TEMP:  65;


$$
MOZ072>076-082>087-097>100-106>115-200700-
...SOUTH CENTRAL AND SOUTHEAST MISSOURI...

CITY           SKY/WX    TMP DP  RH WIND       PRES   REMARKS
CAPE GIRARDEAU CLEAR     58  57  97 SE3       30.03S FOG
6HR MIN TEMP:  58; 6HR MAX TEMP:  72;

FARMINGTON       N/A     57  57 100 CALM      30.05S VSB 1/2
6HR MIN TEMP:  57; 6HR MAX TEMP:  72;

POPLAR BLUFF   CLEAR     61  58  90 CALM      30.01F FOG
6HR MIN TEMP:  61; 6HR MAX TEMP:  74;

WEST PLAINS    CLEAR     62  60  93 CALM      30.05F FOG
6HR MIN TEMP:  62; 6HR MAX TEMP:  74;


$$


USA.gov is the U.S. government's official web portal to all federal, state and local government web resources and services.